EW7149 Weather Reports


Display with metric or nautical units.
time (UTC)temp
F
wind
direction
speed
MPH
gust
MPH
rain 1hr
in
rain 24hr
in
rain mn
in
humidity
%
barometer
mb
20260901131203 79 235 0.0 0.0 0.00 0.00 0.00 1 1016.1
20260901130704 78 234 0.0 0.0 0.00 0.00 0.00 1 1016.1
20260901130211 78 182 0.0 0.0 0.00 0.00 0.00 1 1016.2
20260901125703 78 265 0.0 4.0 0.00 0.00 0.00 1 1016.3
20260901125153 77 274 0.0 0.0 0.00 0.00 0.00 1 1016.4
20260901124637 77 277 0.0 6.0 0.00 0.00 0.00 1 1016.4
20260901124144 77 273 0.0 4.0 0.00 0.00 0.00 1 1016.5
20260901123652 77 291 0.0 3.0 0.00 0.00 0.00 1 1016.6
20260901123138 77 256 0.0 2.0 0.00 0.00 0.00 1 1016.6
20260901122632 77 262 0.0 1.0 0.00 0.00 0.00 1 1016.6
20260901122128 77 261 0.0 0.0 0.00 0.00 0.00 1 1016.7
20260901121631 77 313 0.0 0.0 0.00 0.00 0.00 1 1016.6
20260901121140 77 280 0.0 5.0 0.00 0.00 0.00 1 1016.6
20260901120139 77 205 0.0 1.0 0.00 0.00 0.00 1 1016.5
20260901115640 76 286 0.0 0.0 0.00 0.00 0.00 1 1016.4
20260901115126 76 248 0.0 0.0 0.00 0.00 0.00 1 1016.3
20260901114631 76 239 0.0 2.0 0.00 0.00 0.00 1 1016.2
20260901114117 76 286 0.0 1.0 0.00 0.00 0.00 1 1016.1
20260901113613 76 288 0.0 1.0 0.00 0.00 0.00 1 1016.2
20260901112549 76 192 0.0 1.0 0.00 0.00 0.00 1 1016.2
20260901111555 76 246 0.0 0.0 0.00 0.00 0.00 1 1016.1
20260901111101 76 246 0.0 0.0 0.00 0.00 0.00 1 1016.1
20260901110558 76 246 0.0 0.0 0.00 0.00 0.00 1 1016.0
20260901110038 76 246 0.0 2.0 0.00 0.00 0.00 1 1016.0
20260901105540 76 194 0.0 0.0 0.00 0.00 0.00 1 1016.1
20260901104541 76 252 0.0 0.0 0.00 0.00 0.00 1 1016.2
20260901104048 76 252 0.0 0.0 0.00 0.00 0.00 1 1016.2
20260901103537 76 252 0.0 0.0 0.00 0.00 0.00 1 1016.1
20260901103044 76 254 0.0 0.0 0.00 0.00 0.00 1 1016.0
20260901102552 76 254 0.0 0.0 0.00 0.00 0.00 1 1015.9
20260901102053 76 254 0.0 0.0 0.00 0.00 0.00 1 1015.8
20260901101535 76 254 0.0 0.0 0.00 0.00 0.00 1 1015.8
20260901100018 76 277 0.0 0.0 0.00 0.00 0.00 1 1015.9
20260901094511 76 285 0.0 0.0 0.00 0.00 0.00 1 1016.0
20260901093956 76 286 0.0 2.0 0.00 0.00 0.00 1 1016.0
20260901093440 76 263 0.0 0.0 0.00 0.00 0.00 1 1016.0
20260901092947 76 236 0.0 0.0 0.00 0.00 0.00 1 1016.0
20260901092453 76 236 0.0 2.0 0.00 0.00 0.00 1 1016.0
20260901091951 76 294 0.0 0.0 0.00 0.00 0.00 1 1016.0
20260901091444 76 286 0.0 0.0 0.00 0.00 0.00 1 1016.0
20260901090948 75 240 0.0 0.0 0.00 0.00 0.00 1 1015.9
20260901085946 75 192 0.0 0.0 0.00 0.00 0.00 1 1016.0
20260901084952 75 251 0.0 1.0 0.00 0.00 0.00 1 1016.2
20260901084449 75 238 0.0 0.0 0.00 0.00 0.00 1 1016.2
20260901083933 75 238 0.0 0.0 0.00 0.00 0.00 1 1016.2
20260901083442 75 238 0.0 0.0 0.00 0.00 0.00 1 1016.2
20260901082941 75 251 0.0 0.0 0.00 0.00 0.00 1 1016.2
20260901082430 75 157 0.0 1.0 0.00 0.00 0.00 1 1016.2
20260901081916 75 157 0.0 0.0 0.00 0.00 0.00 1 1016.2
20260901080853 75 157 0.0 0.0 0.00 0.00 0.00 1 1016.1
20260901075900 75 157 0.0 0.0 0.00 0.00 0.00 1 1016.0
20260901075410 75 157 0.0 1.0 0.00 0.00 0.00 1 1016.0
20260901074906 75 158 0.0 0.0 0.00 0.00 0.00 1 1016.0
20260901074353 75 158 0.0 0.0 0.00 0.00 0.00 1 1016.0
20260901073847 75 158 0.0 0.0 0.00 0.00 0.00 1 1016.1
20260901073332 75 158 0.0 0.0 0.00 0.00 0.00 1 1016.1
20260901072833 75 158 0.0 0.0 0.00 0.00 0.00 1 1016.1
20260901072320 75 158 0.0 0.0 0.00 0.00 0.00 1 1016.1
20260901071326 75 158 0.0 0.0 0.00 0.00 0.00 1 1016.0
20260901070828 75 158 0.0 0.0 0.00 0.00 0.00 1 1016.2
20260901070322 75 158 0.0 0.0 0.00 0.00 0.00 1 1016.3
20260901064812 75 157 0.0 0.0 0.00 0.00 0.00 1 1016.5
20260901064311 75 157 0.0 0.0 0.00 0.00 0.00 1 1016.6
20260901063802 75 164 0.0 0.0 0.00 0.00 0.00 1 1016.7
20260901063253 75 164 0.0 0.0 0.00 0.00 0.00 1 1016.8
20260901062743 75 164 0.0 0.0 0.00 0.00 0.00 1 1016.8
20260901062232 75 164 0.0 0.0 0.00 0.00 0.00 1 1016.9
20260901061735 75 164 0.0 0.0 0.00 0.00 0.00 1 1016.9
20260901061226 75 164 0.0 0.0 0.00 0.00 0.00 1 1017.0
20260901060736 75 164 0.0 0.0 0.00 0.00 0.00 1 1017.0
20260901060234 75 164 0.0 0.0 0.00 0.00 0.00 1 1017.0
20260901055743 75 164 0.0 0.0 0.00 0.00 0.00 1 1017.0
20260901055245 75 164 0.0 0.0 0.00 0.00 0.00 1 1016.9
20260901054727 75 164 0.0 0.0 0.00 0.00 0.00 1 1016.9
20260901054223 75 164 0.0 0.0 0.00 0.00 0.00 1 1016.9
20260901053713 75 164 0.0 0.0 0.00 0.00 0.00 1 1016.9
20260901053205 75 164 0.0 1.0 0.00 0.00 0.00 1 1017.0
20260901052705 75 163 0.0 0.0 0.00 0.00 0.00 1 1017.0
20260901052215 75 163 0.0 1.0 0.00 0.00 0.00 1 1017.0
20260901051710 75 167 0.0 0.0 0.00 0.00 0.00 1 1017.1
20260901051217 75 167 0.0 0.0 0.00 0.00 0.00 1 1017.2
20260901050711 75 167 0.0 0.0 0.00 0.00 0.00 1 1017.3
20260901050154 75 167 0.0 0.0 0.00 0.00 0.00 1 1017.3
20260901045147 75 167 0.0 0.0 0.00 0.00 0.00 1 1017.4
20260901044651 75 167 0.0 0.0 0.00 0.00 0.00 1 1017.4
20260901044153 75 167 0.0 0.0 0.00 0.00 0.00 1 1017.4
20260901042645 75 167 0.0 0.0 0.00 0.00 0.00 1 1017.5
20260901041632 75 167 0.0 0.0 0.00 0.00 0.00 1 1017.5
20260901040634 75 167 0.0 0.0 0.00 0.00 0.00 1 1017.5
20260901040141 76 167 0.0 0.0 0.00 0.00 0.00 1 1017.7
20260901035647 76 167 0.0 0.0 0.00 0.00 0.00 1 1017.7
20260901035144 76 167 0.0 0.0 0.00 0.00 0.00 1 1017.7
20260901034645 76 167 0.0 0.0 0.00 0.00 0.00 1 1017.6
20260901033641 75 167 0.0 0.0 0.00 0.00 0.00 1 1017.6
20260901033133 75 167 0.0 0.0 0.00 0.00 0.00 1 1017.6
20260901032626 75 167 0.0 0.0 0.00 0.00 0.00 1 1017.7
20260901031127 74 169 0.0 0.0 0.00 0.00 0.00 1 1017.8
20260901030620 74 169 0.0 0.0 0.00 0.00 0.00 1 1017.9
20260901030107 74 169 0.0 0.0 0.00 0.00 0.00 1 1017.8
20260901025553 74 169 0.0 0.0 0.00 0.00 0.00 1 1017.9
20260901024046 74 169 0.0 0.0 0.00 0.00 0.00 1 1017.9
20260901023535 74 169 0.0 0.0 0.00 0.00 0.00 1 1017.9
20260901022537 74 169 0.0 0.0 0.00 0.00 0.00 1 1017.9
20260901022032 74 169 0.0 0.0 0.00 0.00 0.00 1 1017.8
20260901021525 74 169 0.0 0.0 0.00 0.00 0.00 1 1017.8
20260901021009 74 169 0.0 0.0 0.00 0.00 0.00 1 1017.9
20260901015951 74 169 0.0 0.0 0.00 0.00 0.00 1 1017.8
20260901015459 74 169 0.0 0.0 0.00 0.00 0.00 1 1017.7
20260901014503 74 169 0.0 0.0 0.00 0.00 0.00 1 1017.6
20260901014008 73 169 0.0 0.0 0.00 0.00 0.00 1 1017.6
20260901013514 73 169 0.0 0.0 0.00 0.00 0.00 1 1017.6
20260901013006 73 169 0.0 0.0 0.00 0.00 0.00 1 1017.6
20260901012459 73 169 0.0 0.0 0.00 0.00 0.00 1 1017.6
20260901011955 73 169 0.0 0.0 0.00 0.00 0.00 1 1017.6
20260901010947 73 169 0.0 0.0 0.00 0.00 0.00 1 1017.6
20260901010445 73 169 0.0 0.0 0.00 0.00 0.00 1 1017.6
20260901005947 73 169 0.0 0.0 0.00 0.00 0.00 1 1017.6
20260901005449 73 169 0.0 0.0 0.00 0.00 0.00 1 1017.5
20260901004931 74 169 0.0 0.0 0.00 0.00 0.00 1 1017.4
20260901004432 74 169 0.0 0.0 0.00 0.00 0.00 1 1017.4
20260901003929 74 169 0.0 0.0 0.00 0.00 0.00 1 1017.5
20260901003426 74 169 0.0 0.0 0.00 0.00 0.00 1 1017.4
20260901002933 74 169 0.0 0.0 0.00 0.00 0.00 1 1017.4
20260901002417 74 169 0.0 0.0 0.00 0.00 0.00 1 1017.2
20260901001925 74 169 0.0 0.0 0.00 0.00 0.00 1 1017.2
20260901001416 75 169 0.0 0.0 0.00 0.00 0.00 1 1017.3
20260901000905 75 169 0.0 0.0 0.00 0.00 0.00 1 1017.2
20260901000351 75 169 0.0 0.0 0.00 0.00 0.00 1 1017.1
20260831235850 76 169 0.0 0.0 0.00 0.00 0.00 1 1017.0
20260831235347 76 169 0.0 0.0 0.00 0.00 0.00 1 1017.1
20260831234321 77 169 0.0 0.0 0.00 0.00 0.00 1 1017.3
20260831233831 77 169 0.0 0.0 0.00 0.00 0.00 1 1017.3
20260831233325 78 169 0.0 0.0 0.00 0.00 0.00 1 1017.3
20260831232815 78 169 0.0 0.0 0.00 0.00 0.00 1 1017.4
20260831232305 78 169 0.0 0.0 0.00 0.00 0.00 1 1017.4
20260831231809 78 169 0.0 0.0 0.00 0.00 0.00 1 1017.3
20260831231304 79 169 0.0 0.0 0.00 0.00 0.00 1 1017.4
20260831230812 79 169 0.0 0.0 0.00 0.00 0.00 1 1017.3
20260831230253 79 169 0.0 0.0 0.00 0.00 0.00 1 1017.3
20260831225747 79 227 0.0 0.0 0.00 0.00 0.00 1 1017.4
20260831225245 79 227 0.0 0.0 0.00 0.00 0.00 1 1017.4
20260831224220 80 227 0.0 0.0 0.00 0.00 0.00 1 1017.7
20260831223728 80 227 0.0 0.0 0.00 0.00 0.00 1 1017.6
20260831223214 80 227 0.0 0.0 0.00 0.00 0.00 1 1017.7
20260831222723 80 227 0.0 0.0 0.00 0.00 0.00 1 1017.8
20260831222216 80 227 0.0 0.0 0.00 0.00 0.00 1 1017.8
20260831221721 80 227 0.0 0.0 0.00 0.00 0.00 1 1017.9
20260831221210 80 227 0.0 0.0 0.00 0.00 0.00 1 1017.9
20260831215142 81 227 0.0 0.0 0.00 0.00 0.00 1 1017.9
20260831214637 81 227 0.0 0.0 0.00 0.00 0.00 1 1017.8
20260831214145 81 227 0.0 0.0 0.00 0.00 0.00 1 1017.8
20260831213629 81 227 0.0 0.0 0.00 0.00 0.00 1 1017.8
20260831213112 81 227 0.0 0.0 0.00 0.00 0.00 1 1017.8
20260831212620 81 227 0.0 0.0 0.00 0.00 0.00 1 1017.9
20260831212123 81 227 0.0 1.0 0.00 0.00 0.00 1 1017.9
20260831211619 82 227 0.0 0.0 0.00 0.00 0.00 1 1017.9
20260831210104 82 227 0.0 0.0 0.00 0.00 0.00 2 1018.0
20260831205550 82 227 0.0 0.0 0.00 0.00 0.00 5 1018.0
20260831205031 82 148 0.0 0.0 0.00 0.00 0.00 4 1018.0
20260831204525 82 148 0.0 0.0 0.00 0.00 0.00 9 1018.0
20260831204007 82 148 0.0 0.0 0.00 0.00 0.00 5 1018.0
20260831201921 82 183 0.0 0.0 0.00 0.00 0.00 4 1018.1
20260831201408 82 239 0.0 0.0 0.00 0.00 0.00 6 1018.2
20260831200918 82 242 0.0 0.0 0.00 0.00 0.00 1 1018.1
20260831195913 82 241 0.0 1.0 0.00 0.00 0.00 1 1018.1
20260831194926 81 240 0.0 0.0 0.00 0.00 0.00 1 1018.2
20260831194422 82 240 0.0 0.0 0.00 0.00 0.00 1 1018.2
20260831193911 82 238 0.0 0.0 0.00 0.00 0.00 1 1018.3
20260831192905 82 189 0.0 0.0 0.00 0.00 0.00 1 1018.4
20260831192351 82 189 0.0 0.0 0.00 0.00 0.00 1 1018.4
20260831191854 82 189 0.0 0.0 0.00 0.00 0.00 1 1018.5
20260831191346 82 189 0.0 0.0 0.00 0.00 0.00 5 1018.5
20260831190846 82 189 0.0 0.0 0.00 0.00 0.00 8 1018.5
20260831190328 82 189 0.0 0.0 0.00 0.00 0.00 2 1018.6
20260831185827 82 189 0.0 0.0 0.00 0.00 0.00 8 1018.7
20260831185314 82 189 0.0 0.0 0.00 0.00 0.00 9 1018.7
20260831184759 82 189 0.0 0.0 0.00 0.00 0.00 14 1018.7
20260831184305 83 189 0.0 0.0 0.00 0.00 0.00 19 1018.7
20260831183755 83 189 0.0 1.0 0.00 0.00 0.00 21 1018.7
20260831183244 83 187 0.0 0.0 0.00 0.00 0.00 26 1018.7
20260831182754 83 184 0.0 0.0 0.00 0.00 0.00 30 1018.6
20260831182235 84 184 0.0 0.0 0.00 0.00 0.00 26 1018.6
20260831181233 84 153 0.0 0.0 0.00 0.00 0.00 30 1018.7
20260831180720 84 151 0.0 0.0 0.00 0.00 0.00 28 1018.8
20260831180230 84 151 0.0 0.0 0.00 0.00 0.00 28 1018.7
20260831175714 83 242 0.0 0.0 0.00 0.00 0.00 28 1018.8
20260831175203 83 242 0.0 0.0 0.00 0.00 0.00 26 1018.8
20260831174657 83 219 0.0 0.0 0.00 0.00 0.00 27 1018.8
20260831174206 83 123 0.0 0.0 0.00 0.00 0.00 25 1018.9
20260831173654 83 109 0.0 0.0 0.00 0.00 0.00 24 1018.8
20260831173153 83 107 0.0 0.0 0.00 0.00 0.00 26 1018.9
20260831172656 83 88 0.0 0.0 0.00 0.00 0.00 24 1018.9
20260831172155 82 86 0.0 0.0 0.00 0.00 0.00 21 1018.9
20260831171637 83 79 0.0 0.0 0.00 0.00 0.00 27 1019.0
20260831170630 83 5 0.0 0.0 0.00 0.00 0.00 23 1019.1
20260831170112 83 5 0.0 0.0 0.00 0.00 0.00 22 1019.1
20260831164559 83 9 0.0 0.0 0.00 0.00 0.00 29 1019.2
20260831163554 83 315 0.0 0.0 0.00 0.00 0.00 24 1019.1
20260831163056 83 67 0.0 3.0 0.00 0.00 0.00 15 1019.2
20260831162046 83 159 0.0 0.0 0.00 0.00 0.00 28 1019.1
20260831161543 83 159 0.0 0.0 0.00 0.00 0.00 27 1019.1
20260831160538 84 305 0.0 0.0 0.00 0.00 0.00 25 1019.2
20260831160041 83 309 0.0 0.0 0.00 0.00 0.00 26 1019.3
20260831155528 83 309 0.0 0.0 0.00 0.00 0.00 23 1019.4
20260831155031 83 309 0.0 0.0 0.00 0.00 0.00 19 1019.3
20260831154519 83 309 0.0 0.0 0.00 0.00 0.00 6 1019.2
20260831154028 82 308 0.0 0.0 0.00 0.00 0.00 16 1019.3
20260831153536 82 153 0.0 0.0 0.00 0.00 0.00 16 1019.3
20260831153027 82 98 0.0 2.0 0.00 0.00 0.00 5 1019.4
20260831152033 81 91 0.0 0.0 0.00 0.00 0.00 15 1019.5
20260831151046 80 96 0.0 0.0 0.00 0.00 0.00 1 1019.6
20260831145542 78 286 0.0 0.0 0.00 0.00 0.00 1 1019.6
20260831145044 77 290 0.0 0.0 0.00 0.00 0.00 1 1019.6
20260831144549 77 290 0.0 0.0 0.00 0.00 0.00 1 1019.7
20260831144051 76 175 0.0 0.0 0.00 0.00 0.00 1 1019.7
20260831143558 76 187 0.0 0.0 0.00 0.00 0.00 1 1019.7
20260831143039 75 123 0.0 0.0 0.00 0.00 0.00 1 1019.7
20260831142540 75 123 0.0 0.0 0.00 0.00 0.00 1 1019.6
20260831142037 75 123 0.0 0.0 0.00 0.00 0.00 1 1019.7
20260831140545 74 118 0.0 1.0 0.00 0.00 0.00 1 1019.5
20260831140037 75 67 0.0 0.0 0.00 0.00 0.00 1 1019.4
20260831135026 75 67 0.0 0.0 0.00 0.00 0.00 1 1019.4
20260831132954 75 76 0.0 0.0 0.00 0.00 0.00 1 1019.4
20260831132449 75 76 0.0 0.0 0.00 0.00 0.00 1 1019.4
20260831131938 74 32 0.0 0.0 0.00 0.00 0.00 1 1019.3